Location: ??
(34.7252°N, 135.5457°E)
Time: 08:46:17
(UTC+00:00)

Delta 2 Rocket - Pass Details

Date: 24 September 2020
Orbit: 415 x 807 km, 35.6° (Epoch: 28 October)

Event Time Altitude Azimuth Distance (km) Brightness Sun altitude
Exits shadow 19:50:42 12° 214° (SSW) 1,390 5.0 -12.6°
Maximum altitude 19:53:20 28° 155° (SSE) 814 4.4 -12.0°
Drops below altitude 10° 19:56:14 10° 95° (E) 1,491 7.0 -11.4°
Sets 19:58:34 0° 83° (E) 2,383 8.9 -11.0°
